Simultaneous Nadir Overpasses (SNOs) Predictions

Prediction of SNOs between LANDSAT-8 and METOP-A Satellite Orbit:

Table of predicted SNOs for the next 14.0 days since TLE Epoch: 9/1/2018
Index Date (LANDSAT-8) Time (LANDSAT-8) Lat,Lon (LANDSAT-8) SZA (LANDSAT-8 ) Date (METOP-A) Time (METOP-A) Lat,Lon (METOP-A) SZA (METOP-A ) Distance(km) Time Diff (sec)
1 09/02/2018 15:32:49 -81.40, 171.68 103.84 09/02/2018 15:32:13 -81.40, 171.77 103.85 1.57 36
2 09/02/2018 16:22:16 81.39, -20.93 76.15 09/02/2018 16:22:53 81.40, -20.78 76.19 2.62 37
3 09/05/2018 11:07:05 -81.39,-122.19 102.82 09/05/2018 11:06:29 -81.39,-122.11 102.83 1.47 36
4 09/05/2018 11:56:31 81.39, 45.56 77.21 09/05/2018 11:57:08 81.40, 45.72 77.25 2.76 37
5 09/08/2018 06:41:21 -81.39, -55.70 101.74 09/08/2018 06:40:45 -81.39, -55.61 101.75 1.60 36
6 09/08/2018 07:30:47 81.39, 112.03 78.29 09/08/2018 07:31:24 81.40, 112.21 78.33 3.23 37
7 09/11/2018 02:15:37 -81.39, 10.77 100.66 09/11/2018 02:15:01 -81.39, 10.88 100.66 2.03 36
8 09/11/2018 03:05:03 81.39, 178.46 79.37 09/11/2018 03:05:41 81.39, 178.30 79.37 2.73 38
9 09/13/2018 21:49:52 -81.39, 77.20 99.56 09/13/2018 21:49:16 -81.39, 77.36 99.56 2.74 36




NCC Satellite Simultaneous Nadir Overpasses (SNOs) Prediction Service
